• în Republica Moldova
  • Lista ţărilor
  • Pe 7 zile
  • Temperatura apei
  • Hartă satelitară
  • Meteo pe hartă
  • Widget-uri
  • user-avatar
    Intrare

    Meteo pe oră la Lezhe

    Astăzi, 25 Mai, Joi

    Timp Temperatura Precipitaţii Vânt Presiune Umiditate
    00:00 +14°C° 0,2 mm 1 m/s 736 mmHg 94%
    01:00 +13°C° 0 mm 1 m/s 736 mmHg 93%
    02:00 +14°C° 0,2 mm 1 m/s 736 mmHg 93%
    03:00 +14°C° 0,2 mm 1 m/s 735 mmHg 93%
    04:00 +14°C° 0,2 mm 2 m/s 735 mmHg 93%
    05:00 +15°C° 0,3 mm 2 m/s 735 mmHg 88%
    06:00 +17°C° 0,3 mm 2 m/s 735 mmHg 83%
    07:00 +18°C° 0 mm 2 m/s 736 mmHg 77%
    08:00 +19°C° 0,7 mm 2 m/s 736 mmHg 74%
    09:00 +20°C° 0,7 mm 2 m/s 736 mmHg 71%
    10:00 +20°C° 0,7 mm 2 m/s 736 mmHg 68%
    11:00 +19°C° 1,8 mm 2 m/s 736 mmHg 74%
    12:00 +18°C° 1,8 mm 2 m/s 735 mmHg 80%
    13:00 +17°C° 0 mm 2 m/s 735 mmHg 87%
    14:00 +16°C° 1,8 mm 2 m/s 735 mmHg 88%
    15:00 +16°C° 1,8 mm 2 m/s 735 mmHg 90%
    16:00 +14°C° 1,8 mm 3 m/s 735 mmHg 91%
    17:00 +14°C° 0,7 mm 3 m/s 735 mmHg 91%
    18:00 +13°C° 0,7 mm 3 m/s 735 mmHg 91%
    19:00 +13°C° 0,7 mm 3 m/s 735 mmHg 91%
    20:00 +13°C° 0,3 mm 3 m/s 735 mmHg 90%
    21:00 +13°C° 0,3 mm 3 m/s 735 mmHg 90%
    22:00 +12°C° 0,3 mm 3 m/s 735 mmHg 90%
    23:00 +12°C° 0,2 mm 3 m/s 735 mmHg 89%

    Mâine, 26 Mai, Vineri

    Timp Temperatura Precipitaţii Vânt Presiune Umiditate
    00:00 +12°C° 0,2 mm 3 m/s 735 mmHg 89%
    01:00 +13°C° 0,2 mm 2 m/s 735 mmHg 89%
    02:00 +12°C° 0,2 mm 2 m/s 735 mmHg 89%
    03:00 +12°C° 0,2 mm 2 m/s 734 mmHg 90%
    04:00 +12°C° 0,2 mm 2 m/s 734 mmHg 90%
    05:00 +13°C° 0,2 mm 2 m/s 734 mmHg 88%
    06:00 +14°C° 0,2 mm 2 m/s 734 mmHg 86%
    07:00 +14°C° 0,2 mm 2 m/s 735 mmHg 83%
    08:00 +16°C° 0,1 mm 2 m/s 735 mmHg 77%
    09:00 +17°C° 0,1 mm 2 m/s 735 mmHg 70%
    10:00 +19°C° 0,1 mm 3 m/s 735 mmHg 63%
    11:00 +19°C° 0,1 mm 3 m/s 735 mmHg 61%
    12:00 +20°C° 0,1 mm 3 m/s 735 mmHg 58%
    13:00 +21°C° 0,1 mm 4 m/s 735 mmHg 55%
    14:00 +21°C° 0,1 mm 4 m/s 735 mmHg 57%
    15:00 +20°C° 0,1 mm 4 m/s 735 mmHg 58%
    16:00 +20°C° 0,1 mm 4 m/s 735 mmHg 59%
    17:00 +19°C° 0 mm 4 m/s 735 mmHg 66%
    18:00 +17°C° 0 mm 3 m/s 735 mmHg 73%
    19:00 +16°C° 0 mm 3 m/s 735 mmHg 79%
    20:00 +14°C° 0,1 mm 3 m/s 735 mmHg 80%
    21:00 +14°C° 0,1 mm 3 m/s 736 mmHg 81%
    22:00 +14°C° 0,1 mm 3 m/s 736 mmHg 82%
    23:00 +14°C° 0,1 mm 3 m/s 736 mmHg 83%

    Poimâine, 27 Mai, Sâmbătă

    Timp Temperatura Precipitaţii Vânt Presiune Umiditate
    00:00 +14°C° 0,1 mm 3 m/s 736 mmHg 83%
    01:00 +14°C° 0,1 mm 3 m/s 736 mmHg 84%
    02:00 +13°C° 0 mm 3 m/s 736 mmHg 85%
    03:00 +13°C° 0 mm 3 m/s 736 mmHg 87%
    04:00 +13°C° 0 mm 3 m/s 736 mmHg 88%
    05:00 +14°C° 0 mm 3 m/s 736 mmHg 82%
    06:00 +17°C° 0 mm 3 m/s 737 mmHg 75%
    07:00 +18°C° 0 mm 3 m/s 737 mmHg 69%
    08:00 +20°C° 0 mm 3 m/s 737 mmHg 62%
    09:00 +21°C° 0 mm 3 m/s 737 mmHg 55%
    10:00 +24°C° 0 mm 3 m/s 737 mmHg 48%
    11:00 +24°C° 0 mm 3 m/s 737 mmHg 46%
    12:00 +25°C° 0 mm 3 m/s 737 mmHg 43%
    13:00 +26°C° 0 mm 4 m/s 737 mmHg 41%
    14:00 +26°C° 0,1 mm 4 m/s 737 mmHg 42%
    15:00 +25°C° 0,1 mm 4 m/s 737 mmHg 44%
    16:00 +25°C° 0,1 mm 4 m/s 737 mmHg 45%
    17:00 +22°C° 0 mm 4 m/s 737 mmHg 54%
    18:00 +20°C° 0 mm 4 m/s 737 mmHg 63%
    19:00 +17°C° 0 mm 3 m/s 738 mmHg 73%
    20:00 +17°C° 0 mm 3 m/s 738 mmHg 75%
    21:00 +16°C° 0 mm 3 m/s 738 mmHg 77%
    22:00 +14°C° 0 mm 3 m/s 739 mmHg 79%
    23:00 +14°C° 0 mm 4 m/s 739 mmHg 80%

    28 Mai, Duminică

    Timp Temperatura Precipitaţii Vânt Presiune Umiditate
    00:00 +14°C° 0 mm 4 m/s 739 mmHg 81%
    01:00 +14°C° 0 mm 4 m/s 739 mmHg 82%
    02:00 +13°C° 0 mm 4 m/s 739 mmHg 82%
    03:00 +13°C° 0 mm 3 m/s 739 mmHg 83%
    04:00 +13°C° 0 mm 3 m/s 739 mmHg 83%
    05:00 +15°C° 0 mm 4 m/s 739 mmHg 77%
    06:00 +17°C° 0 mm 4 m/s 739 mmHg 72%
    07:00 +19°C° 0 mm 4 m/s 740 mmHg 66%
    08:00 +21°C° 0 mm 3 m/s 740 mmHg 59%
    09:00 +22°C° 0 mm 3 m/s 740 mmHg 52%
    10:00 +25°C° 0 mm 3 m/s 740 mmHg 45%
    11:00 +26°C° 0,1 mm 3 m/s 740 mmHg 44%
    12:00 +26°C° 0,1 mm 3 m/s 740 mmHg 43%
    13:00 +27°C° 0,1 mm 3 m/s 740 mmHg 42%
    14:00 +27°C° 0,2 mm 4 m/s 740 mmHg 44%
    15:00 +26°C° 0,2 mm 4 m/s 740 mmHg 47%
    16:00 +26°C° 0,2 mm 4 m/s 740 mmHg 50%
    17:00 +24°C° 0,1 mm 3 m/s 740 mmHg 58%
    18:00 +21°C° 0,1 mm 3 m/s 740 mmHg 66%
    19:00 +18°C° 0,1 mm 3 m/s 740 mmHg 75%
    20:00 +18°C° 0 mm 3 m/s 741 mmHg 76%
    21:00 +17°C° 0 mm 3 m/s 741 mmHg 78%
    22:00 +16°C° 0 mm 3 m/s 741 mmHg 80%
    23:00 +16°C° 0 mm 3 m/s 741 mmHg 81%

    29 Mai, Luni

    Timp Temperatura Precipitaţii Vânt Presiune Umiditate
    00:00 +14°C° 0 mm 3 m/s 741 mmHg 82%
    01:00 +14°C° 0 mm 3 m/s 741 mmHg 83%
    02:00 +14°C° 0 mm 3 m/s 741 mmHg 84%
    03:00 +13°C° 0 mm 3 m/s 741 mmHg 84%
    04:00 +13°C° 0 mm 3 m/s 740 mmHg 84%
    05:00 +16°C° 0 mm 3 m/s 741 mmHg 78%
    06:00 +18°C° 0 mm 2 m/s 741 mmHg 71%
    07:00 +20°C° 0 mm 2 m/s 741 mmHg 64%
    08:00 +23°C° 0 mm 2 m/s 741 mmHg 55%
    09:00 +25°C° 0 mm 2 m/s 741 mmHg 46%
    10:00 +27°C° 0 mm 1 m/s 740 mmHg 37%
    11:00 +27°C° 0 mm 2 m/s 740 mmHg 36%
    12:00 +28°C° 0 mm 2 m/s 740 mmHg 35%
    13:00 +28°C° 0 mm 2 m/s 739 mmHg 33%
    14:00 +28°C° 0 mm 3 m/s 739 mmHg 36%
    15:00 +27°C° 0 mm 3 m/s 739 mmHg 39%
    16:00 +26°C° 0 mm 3 m/s 738 mmHg 42%
    17:00 +24°C° 0 mm 2 m/s 738 mmHg 54%
    18:00 +20°C° 0 mm 2 m/s 738 mmHg 67%
    19:00 +18°C° 0 mm 1 m/s 738 mmHg 79%
    20:00 +16°C° 0 mm 1 m/s 738 mmHg 80%
    21:00 +15°C° 0 mm 1 m/s 738 mmHg 81%
    22:00 +13°C° 0 mm 0 m/s 738 mmHg 82%
    23:00 +13°C° 0 mm 0 m/s 738 mmHg 82%

    30 Mai, Marţi

    Timp Temperatura Precipitaţii Vânt Presiune Umiditate
    00:00 +13°C° 0 mm 0 m/s 738 mmHg 82%
    01:00 +12°C° 0 mm 0 m/s 738 mmHg 82%
    02:00 +12°C° 0 mm 0 m/s 738 mmHg 83%
    03:00 +12°C° 0 mm 0 m/s 738 mmHg 84%
    04:00 +12°C° 0 mm 0 m/s 737 mmHg 86%
    05:00 +15°C° 0 mm 0 m/s 738 mmHg 75%
    06:00 +18°C° 0 mm 0 m/s 738 mmHg 65%
    07:00 +21°C° 0 mm 0 m/s 738 mmHg 54%
    08:00 +23°C° 0 mm 0 m/s 738 mmHg 50%
    09:00 +26°C° 0 mm 1 m/s 738 mmHg 45%
    10:00 +28°C° 0 mm 1 m/s 738 mmHg 40%
    11:00 +28°C° 0 mm 2 m/s 738 mmHg 40%
    12:00 +28°C° 0 mm 2 m/s 738 mmHg 39%
    13:00 +29°C° 0 mm 3 m/s 738 mmHg 39%
    14:00 +28°C° 0,1 mm 3 m/s 738 mmHg 43%
    15:00 +27°C° 0,1 mm 3 m/s 738 mmHg 47%
    16:00 +26°C° 0,1 mm 2 m/s 737 mmHg 51%
    17:00 +24°C° 0,1 mm 2 m/s 737 mmHg 63%
    18:00 +21°C° 0,1 mm 1 m/s 737 mmHg 74%
    19:00 +19°C° 0,1 mm 1 m/s 737 mmHg 86%
    20:00 +18°C° 0 mm 1 m/s 738 mmHg 87%
    21:00 +16°C° 0 mm 1 m/s 738 mmHg 89%
    22:00 +14°C° 0 mm 0 m/s 738 mmHg 90%
    23:00 +14°C° 0 mm 0 m/s 738 mmHg 90%
    Arată mai mult